General Heriberto Jara International Airport
MMVR : now visible

Airfield :











YOU CAN JOIN US ON...

 
LOGIN :

Register | Disclaimer

   EN    FR    IT 

 









Legend :    VFR   Marginal VFR   IFR   Intensive IFR   Very Intensive IFR
Visi :
Ceiling :
>= 8 km
>= 3000ft
5 to 8 km
1000 to 3000 ft
1500m to 5 km
500 to 1000 ft
800 to 1500m
200 to 500 ft
< 800m
< 200 ft
Symbols :   Thunderstorms  Fog  Heavy snow  Heavy precipitations  Wind > 20 kt







- Airport Elevation : 90 ft
- IATA code : VER


MMVR - General Heriberto Jara International

CURRENT METAR :
  • 161243Z 00000KT 5SM SCT040 BKN080 26/24 A2998 RMK 8/670 HZY ISOL CI DSNT CBS E

EXPIRED METARs :
  • 161143Z 00000KT 7SM SCT100 25/23 A2996 RMK SLP125 5//// 952 8/070 HZY DSNT CBS E

TAF TAF MMVR
Valid from the 16 at 06:00 until the 17 at 06:00 UTC


160424Z 1606/1706 00000KT 6SM HZ SCT010 SCT070 TX32/1618Z TN25/1612Z
FM161800 06010KT 6SM HZ SCT020 BKN250
TEMPO 1621/1701 6SM TSRA BKN020CB
FM170300 03005KT 5SM HZ SCT015 BKN080
No reported NOTAMs for that airfield.



MET'MAP, your aeronautical weather chart ! - Copyright ORBIFLY December 2007 - Disclaimer

ORBIFLY MET'MAP TEAM :

Programming & Development : Alexandra Zaïnal
Concept & Development : Baudouin d'Aumeries
Co-Development & Prog : Marc-Olivier Méhu
Technical & hardware support : Manuel Goepfert

Contact : metmap@orbifly.com




SOURCES & CREDITS :

   NOAA       Earth
Advisory